Weather reports worldwide

Advertisment
Termoli, Italy (16232): temperature & dewpoint: 11.07.2019 07:00:00 - 17.07.2019 07:00:00 (CEST)Termoli, Italy (16232): wind speed: 11.07.2019 07:00:00 - 17.07.2019 07:00:00 (CEST)Termoli, Italy (16232): wind direction: 11.07.2019 07:00:00 - 17.07.2019 07:00:00 (CEST)Termoli, Italy (16232): reduced air pressure: 11.07.2019 07:00:00 - 17.07.2019 07:00:00 (CEST)Termoli, Italy (16232): visibility: 11.07.2019 07:00:00 - 17.07.2019 07:00:00 (CEST)Termoli, Italy (16232): sunshine duration: 11.07.2019 07:00:00 - 17.07.2019 07:00:00 (CEST)
Date & Time tt [°C] td [°C] ff [km/h] ff [kn] dd ppp [hPa] vv [km] sd [min]
17.07.2019 07:00:00 - - - - - - - -
17.07.2019 06:00:00 - - - - - - - -
17.07.2019 05:00:00 - - - - - - - -
17.07.2019 04:00:00 - - - - - - - -
17.07.2019 03:00:00 - - - - - - - -
17.07.2019 02:00:00 - - - - - - - -
17.07.2019 01:00:00 - - - - - - - -
17.07.2019 00:00:00 - - - - - - - -
16.07.2019 23:00:00 - - - - - - - -
16.07.2019 22:00:00 - - - - - - - -
16.07.2019 21:00:00 - - - - - - - -
16.07.2019 20:00:00 26,0 16,6 34 18 NW 1010,1 20 -
16.07.2019 19:00:00 - - - - - - - -
16.07.2019 18:00:00 - - - - - - - -
16.07.2019 17:00:00 27,0 15,4 29 16 NNW 1010,0 20 60
16.07.2019 16:00:00 - - - - - - - -
16.07.2019 15:00:00 - - - - - - - -
16.07.2019 14:00:00 24,8 20,3 26 14 N 1009,9 20 60
16.07.2019 13:00:00 - - - - - - - -
16.07.2019 12:00:00 - - - - - - - -
16.07.2019 11:00:00 23,8 21,3 28 15 NW 1008,9 10 0
16.07.2019 10:00:00 - - - - - - - -
16.07.2019 09:00:00 - - - - - - - -
16.07.2019 08:00:00 20,0 18,8 29 16 WNW 1008,3 4,0 0
16.07.2019 07:00:00 - - - - - - - -
16.07.2019 06:00:00 - - - - - - - -
16.07.2019 05:00:00 - - - - - - - -
16.07.2019 04:00:00 - - - - - - - -
16.07.2019 03:00:00 - - - - - - - -
16.07.2019 02:00:00 - - - - - - - -
16.07.2019 01:00:00 - - - - - - - -
16.07.2019 00:00:00 - - - - - - - -
15.07.2019 23:00:00 - - - - - - - -
15.07.2019 22:00:00 - - - - - - - -
15.07.2019 21:00:00 - - - - - - - -
15.07.2019 20:00:00 24,0 19,5 11 6 NNW 1008,2 20 0
15.07.2019 19:00:00 - - - - - - - -
15.07.2019 18:00:00 - - - - - - - -
15.07.2019 17:00:00 25,0 18,2 11 6 N 1008,1 20 0
15.07.2019 16:00:00 - - - - - - - -
15.07.2019 15:00:00 - - - - - - - -
15.07.2019 14:00:00 25,0 20,0 18 10 NNW 1008,0 20 12
15.07.2019 13:00:00 - - - - - - - -
15.07.2019 12:00:00 - - - - - - - -
15.07.2019 11:00:00 27,0 21,5 11 6 NNW 1007,4 20 24
15.07.2019 10:00:00 - - - - - - - -
15.07.2019 09:00:00 - - - - - - - -
15.07.2019 08:00:00 22,0 16,9 9 5 WSW 1008,0 20 6
15.07.2019 07:00:00 - - - - - - - -
15.07.2019 06:00:00 - - - - - - - -
15.07.2019 05:00:00 - - - - - - - -
15.07.2019 04:00:00 - - - - - - - -
15.07.2019 03:00:00 - - - - - - - -
15.07.2019 02:00:00 - - - - - - - -
15.07.2019 01:00:00 - - - - - - - -
15.07.2019 00:00:00 - - - - - - - -
14.07.2019 23:00:00 - - - - - - - -
14.07.2019 22:00:00 - - - - - - - -
14.07.2019 21:00:00 - - - - - - - -
14.07.2019 20:00:00 27,0 17,5 5 3 NNW 1009,7 25 60
14.07.2019 19:00:00 - - - - - - - -
14.07.2019 18:00:00 - - - - - - - -
14.07.2019 17:00:00 26,0 14,5 15 8 N 1010,7 25 60
14.07.2019 16:00:00 - - - - - - - -
14.07.2019 15:00:00 - - - - - - - -
14.07.2019 14:00:00 25,0 12,9 18 10 N 1011,2 20 60
14.07.2019 13:00:00 - - - - - - - -
14.07.2019 12:00:00 - - - - - - - -
14.07.2019 11:00:00 24,6 14,7 26 14 NW 1011,1 20 60
14.07.2019 10:00:00 - - - - - - - -
14.07.2019 09:00:00 - - - - - - - -
14.07.2019 08:00:00 23,0 20,5 29 16 NW 1009,8 20 18
14.07.2019 07:00:00 - - - - - - - -
14.07.2019 06:00:00 - - - - - - - -
14.07.2019 05:00:00 - - - - - - - -
14.07.2019 04:00:00 - - - - - - - -
14.07.2019 03:00:00 - - - - - - - -
14.07.2019 02:00:00 - - - - - - - -
14.07.2019 01:00:00 - - - - - - - -
14.07.2019 00:00:00 - - - - - - - -
13.07.2019 23:00:00 - - - - - - - -
13.07.2019 22:00:00 - - - - - - - -
13.07.2019 21:00:00 - - - - - - - -
13.07.2019 20:00:00 23,6 20,5 21 11 NW 1008,2 25 0
13.07.2019 19:00:00 - - - - - - - -
13.07.2019 18:00:00 - - - - - - - -
13.07.2019 17:00:00 24,8 22,1 26 14 NW 1008,4 10 12
13.07.2019 16:00:00 - - - - - - - -
13.07.2019 15:00:00 - - - - - - - -
13.07.2019 14:00:00 23,0 22,0 63 34 N 1006,9 10 24
13.07.2019 13:00:00 - - - - - - - -
13.07.2019 12:00:00 - - - - - - - -
13.07.2019 11:00:00 28,2 22,2 9 5 SE 1007,0 20 60
13.07.2019 10:00:00 - - - - - - - -
13.07.2019 09:00:00 - - - - - - - -
13.07.2019 08:00:00 22,6 20,9 11 6 SSE 1008,3 20 60
13.07.2019 07:00:00 - - - - - - - -
13.07.2019 06:00:00 - - - - - - - -
13.07.2019 05:00:00 - - - - - - - -
13.07.2019 04:00:00 - - - - - - - -
13.07.2019 03:00:00 - - - - - - - -
13.07.2019 02:00:00 - - - - - - - -
13.07.2019 01:00:00 - - - - - - - -
13.07.2019 00:00:00 - - - - - - - -
12.07.2019 23:00:00 - - - - - - - -
12.07.2019 22:00:00 - - - - - - - -
12.07.2019 21:00:00 - - - - - - - -
12.07.2019 20:00:00 24,4 21,3 9 5 SW 1011,7 10 12
12.07.2019 19:00:00 - - - - - - - -
12.07.2019 18:00:00 - - - - - - - -
12.07.2019 17:00:00 27,8 19,9 8 4 E 1011,3 20 24
12.07.2019 16:00:00 - - - - - - - -
12.07.2019 15:00:00 - - - - - - - -
12.07.2019 14:00:00 27,6 20,9 8 4 NE 1011,5 20 60
12.07.2019 13:00:00 - - - - - - - -
12.07.2019 12:00:00 - - - - - - - -
12.07.2019 11:00:00 26,4 16,6 11 6 E 1012,0 20 60
12.07.2019 10:00:00 - - - - - - - -
12.07.2019 09:00:00 - - - - - - - -
12.07.2019 08:00:00 21,4 15,9 9 5 SW 1012,4 20 30
12.07.2019 07:00:00 - - - - - - - -
12.07.2019 06:00:00 - - - - - - - -
12.07.2019 05:00:00 - - - - - - - -
12.07.2019 04:00:00 - - - - - - - -
12.07.2019 03:00:00 - - - - - - - -
12.07.2019 02:00:00 - - - - - - - -
12.07.2019 01:00:00 - - - - - - - -
12.07.2019 00:00:00 - - - - - - - -
11.07.2019 23:00:00 - - - - - - - -
11.07.2019 22:00:00 - - - - - - - -
11.07.2019 21:00:00 - - - - - - - -
11.07.2019 20:00:00 25,4 11,9 2 1 NW 1012,2 30 30
11.07.2019 19:00:00 - - - - - - - -
11.07.2019 18:00:00 - - - - - - - -
11.07.2019 17:00:00 26,8 12,8 5 3 NNE 1013,1 20 48
11.07.2019 16:00:00 - - - - - - - -
11.07.2019 15:00:00 - - - - - - - -
11.07.2019 14:00:00 25,6 12,1 16 9 N 1013,6 20 60
11.07.2019 13:00:00 - - - - - - - -
11.07.2019 12:00:00 - - - - - - - -
11.07.2019 11:00:00 25,2 15,5 24 13 NNW 1013,6 20 60
11.07.2019 10:00:00 - - - - - - - -
11.07.2019 09:00:00 - - - - - - - -
11.07.2019 08:00:00 24,0 16,0 29 16 NNW 1012,7 20 60
11.07.2019 07:00:00 - - - - - - - -

tt = temperature
td = dewpoint
ff = wind speed
dd = wind direction
ppp = reduced air pressure
vv = visibility
sd = sunshine duration

Next stations